Rockingham, NC

9:10 PM EDT on September 22, 2017 (GMT -0400)
Rockingham

Weather History for KRCZ - October, 2013

Change the Weather History Date:

Saturday, October 26, 2013

  Actual Average (KHFF) Record (KHFF)
Temperature  
Mean Temperature 46 °F -  
Max Temperature 60 °F 68 °F 82 °F (2014)
Min Temperature 31 °F 46 °F 26 °F (2013)
Degree Days  
Heating Degree Days 20    
Moisture  
Dew Point 32 °F    
Average Humidity 65    
Maximum Humidity 99    
Minimum Humidity 33    
Precipitation  
Precipitation 0.00 in - - ()
Sea Level Pressure  
Sea Level Pressure 30.25 in    
Wind  
Wind Speed 3 mph (WSW)    
Max Wind Speed 10 mph    
Max Gust Speed -    
Visibility 10 miles    
Events      
Averages and records for this station are not official NWS values.
T = Trace of Precipitation, MM = Missing Value Source: NWS Daily Summary

Daily Weather History Graph

Daily Weather History Graph

Search for Another Location

Airport or City:

Trip Planner

Search our weather history database for the weather conditions in past years. The results will help you decide how hot, cold, wet, or windy it might be!

Date:

Astronomy

Oct. 26, 2013 Rise Set
Actual Time 7:34 AM EDT 6:30 PM EDT
Civil Twilight 7:08 AM EDT 6:56 PM EDT
Nautical Twilight 6:39 AM EDT 7:26 PM EDT
Astronomical Twilight 6:09 AM EDT 7:55 PM EDT
Moon No Moon Rise 1:47 PM EDT (10/26)
Length of Visible Light 11h 48m
Length of Day
10h 56m
Waning Gibbous, 53% of the Moon is Illuminated
Oct 26
Waning Gibbous
Oct 26
Last Quarter
Nov 3
New
Nov 10
First Quarter
Nov 17
Full

Hourly Weather History & Observations

Time (EDT) Temp. Windchill Dew Point Humidity Pressure Visibility Wind Dir Wind Speed Gust Speed Precip Events Conditions
12:15 AM 39.2 °F 37.0 °F 31.6 °F 74% 30.37 in 10.0 mi NNW 3.5 mph - N/A   Clear
12:35 AM 38.8 °F - 31.6 °F 75% 30.37 in 10.0 mi Calm Calm - N/A   Clear
12:55 AM 38.7 °F 36.3 °F 31.3 °F 75% 30.36 in 10.0 mi NNW 3.5 mph - N/A   Scattered Clouds
1:15 AM 37.4 °F 34.9 °F 31.1 °F 78% 30.36 in 10.0 mi North 3.5 mph - N/A   Scattered Clouds
1:35 AM 36.3 °F - 31.8 °F 84% 30.35 in 10.0 mi Calm Calm - N/A   Scattered Clouds
1:55 AM 35.8 °F - 32.0 °F 86% 30.35 in 10.0 mi Calm Calm - N/A   Scattered Clouds
2:15 AM 35.6 °F - 32.0 °F 87% 30.34 in 10.0 mi Calm Calm - N/A   Scattered Clouds
2:35 AM 35.6 °F - 31.6 °F 85% 30.34 in 10.0 mi Calm Calm - N/A   Scattered Clouds
2:55 AM 35.1 °F - 32.0 °F 89% 30.33 in 10.0 mi Calm Calm - N/A   Scattered Clouds
3:15 AM 34.5 °F - 31.8 °F 90% 30.33 in 10.0 mi Calm Calm - N/A   Scattered Clouds
3:35 AM 34.5 °F - 32.0 °F 90% 30.33 in 10.0 mi Calm Calm - N/A   Scattered Clouds
3:55 AM 32.7 °F - 31.1 °F 94% 30.32 in 10.0 mi Calm Calm - N/A   Clear
4:15 AM 32.0 °F 28.7 °F 31.3 °F 97% 30.32 in 10.0 mi North 3.5 mph - N/A   Scattered Clouds
4:35 AM 32.5 °F 29.3 °F 31.5 °F 96% 30.32 in 10.0 mi North 3.5 mph - N/A   Scattered Clouds
4:55 AM 32.2 °F - 30.9 °F 95% 30.32 in 10.0 mi Calm Calm - N/A   Scattered Clouds
5:15 AM 32.0 °F - 30.7 °F 95% 30.32 in 10.0 mi Calm Calm - N/A   Scattered Clouds
5:35 AM 32.2 °F - 30.9 °F 95% 30.32 in 10.0 mi Calm Calm - N/A   Scattered Clouds
5:55 AM 32.0 °F - 30.7 °F 95% 30.32 in 10.0 mi Calm Calm - N/A   Scattered Clouds
6:15 AM 31.8 °F - 30.7 °F 96% 30.32 in 10.0 mi Calm Calm - N/A   Scattered Clouds
6:35 AM 31.8 °F - 30.7 °F 96% 30.32 in 10.0 mi Calm Calm - N/A   Clear
6:55 AM 31.1 °F - 30.2 °F 96% 30.33 in 10.0 mi Calm Calm - N/A   Scattered Clouds
7:15 AM 31.1 °F - 30.7 °F 99% 30.33 in 10.0 mi Calm Calm - N/A   Scattered Clouds
7:35 AM 32.0 °F - 30.7 °F 95% 30.33 in 10.0 mi Calm Calm - N/A   Clear
7:55 AM 31.1 °F - 29.8 °F 95% 30.33 in 10.0 mi Calm Calm - N/A   Scattered Clouds
8:15 AM 32.0 °F - 31.1 °F 96% 30.34 in 10.0 mi Calm Calm - N/A   Scattered Clouds
8:35 AM 34.0 °F - 32.0 °F 92% 30.34 in 10.0 mi Calm Calm - N/A   Scattered Clouds
8:55 AM 36.1 °F - 32.0 °F 85% 30.34 in 10.0 mi Calm Calm - N/A   Scattered Clouds
9:15 AM 37.8 °F - 31.8 °F 79% 30.34 in 10.0 mi Calm Calm - N/A   Scattered Clouds
9:35 AM 40.6 °F - 32.2 °F 72% 30.34 in 10.0 mi Calm Calm - N/A   Scattered Clouds
9:55 AM 42.6 °F - 32.9 °F 68% 30.33 in 10.0 mi Calm Calm - N/A   Scattered Clouds
10:15 AM 44.4 °F - 32.2 °F 62% 30.33 in 10.0 mi Calm Calm - N/A   Scattered Clouds
10:35 AM 47.5 °F - 32.2 °F 55% 30.32 in 10.0 mi Calm Calm - N/A   Scattered Clouds
10:55 AM 50.0 °F - 31.5 °F 49% 30.32 in 10.0 mi SSW 3.5 mph - N/A   Clear
11:15 AM 51.8 °F - 31.5 °F 46% 30.31 in 10.0 mi South 4.6 mph - N/A   Clear
11:35 AM 52.7 °F - 31.6 °F 45% 30.31 in 10.0 mi SW 6.9 mph - N/A   Clear
11:55 AM 54.0 °F - 30.7 °F 41% 30.30 in 10.0 mi SSW 3.5 mph - N/A   Clear
12:15 PM 54.5 °F - 31.6 °F 42% 30.29 in 10.0 mi SW 6.9 mph - N/A   Scattered Clouds
12:35 PM 54.9 °F - 30.9 °F 40% 30.28 in 10.0 mi WSW 4.6 mph - N/A   Scattered Clouds
12:55 PM 55.8 °F - 31.6 °F 40% 30.28 in 10.0 mi WNW 5.8 mph - N/A   Scattered Clouds
1:15 PM 56.1 °F - 31.5 °F 39% 30.26 in 10.0 mi West 8.1 mph - N/A   Clear
1:35 PM 56.7 °F - 31.6 °F 39% 30.25 in 10.0 mi SSW 6.9 mph - N/A   Clear
1:55 PM 56.7 °F - 32.0 °F 39% 30.23 in 10.0 mi SW 4.6 mph - N/A   Scattered Clouds
2:15 PM 57.9 °F - 31.6 °F 37% 30.22 in 10.0 mi WSW 10.4 mph - N/A   Clear
2:35 PM 57.7 °F - 31.6 °F 37% 30.21 in 10.0 mi West 9.2 mph - N/A   Clear
2:55 PM 58.1 °F - 31.8 °F 37% 30.20 in 10.0 mi WSW 3.5 mph - N/A   Scattered Clouds
3:15 PM 59.2 °F - 32.2 °F 36% 30.18 in 10.0 mi West 6.9 mph - N/A   Scattered Clouds
3:35 PM 59.4 °F - 32.0 °F 36% 30.17 in 10.0 mi West 9.2 mph - N/A   Scattered Clouds
3:55 PM 59.7 °F - 31.3 °F 34% 30.16 in 10.0 mi SSW 5.8 mph - N/A   Scattered Clouds
4:15 PM 59.9 °F - 30.4 °F 33% 30.15 in 10.0 mi SW 8.1 mph - N/A   Scattered Clouds
4:35 PM 60.1 °F - 31.5 °F 34% 30.15 in 10.0 mi SSW 6.9 mph - N/A   Scattered Clouds
4:55 PM 59.9 °F - 31.5 °F 34% 30.14 in 10.0 mi SSW 8.1 mph - N/A   Clear
5:15 PM 59.9 °F - 31.6 °F 34% 30.13 in 10.0 mi SW 6.9 mph - N/A   Clear
5:35 PM 59.2 °F - 31.6 °F 35% 30.13 in 10.0 mi WSW 5.8 mph - N/A   Clear
5:55 PM 58.1 °F - 32.2 °F 38% 30.13 in 10.0 mi SW 3.5 mph - N/A   Clear
6:15 PM 56.1 °F - 34.0 °F 43% 30.14 in 10.0 mi SW 3.5 mph - N/A   Clear
6:35 PM 54.1 °F - 34.2 °F 47% 30.14 in 10.0 mi WSW 4.6 mph - N/A   Clear
6:55 PM 52.9 °F - 35.1 °F 51% 30.14 in 10.0 mi WSW 3.5 mph - N/A   Clear
7:15 PM 49.5 °F - 36.7 °F 61% 30.14 in 10.0 mi WSW 4.6 mph - N/A   Scattered Clouds
7:35 PM 50.9 °F - 35.1 °F 55% 30.14 in 10.0 mi WSW 4.6 mph - N/A   Scattered Clouds
7:55 PM 49.3 °F - 36.1 °F 61% 30.14 in 10.0 mi SW 4.6 mph - N/A   Scattered Clouds
8:15 PM 49.8 °F - 35.4 °F 58% 30.13 in 10.0 mi SW 4.6 mph - N/A   Scattered Clouds
8:35 PM 50.4 °F - 34.7 °F 55% 30.13 in 10.0 mi SW 3.5 mph - N/A   Scattered Clouds
8:55 PM 48.9 °F - 35.1 °F 59% 30.12 in 10.0 mi SSW 3.5 mph - N/A   Scattered Clouds
9:15 PM 48.6 °F - 35.4 °F 60% 30.12 in 10.0 mi WSW 3.5 mph - N/A   Scattered Clouds
9:35 PM 46.9 °F - 36.0 °F 66% 30.12 in 10.0 mi WSW 3.5 mph - N/A   Scattered Clouds
9:55 PM 47.8 °F - 35.2 °F 62% 30.12 in 10.0 mi SW 4.6 mph - N/A   Scattered Clouds
10:15 PM 46.9 °F - 35.6 °F 65% 30.12 in 10.0 mi SW 4.6 mph - N/A   Scattered Clouds
10:35 PM 46.2 °F 44.1 °F 35.6 °F 66% 30.13 in 10.0 mi WSW 4.6 mph - N/A   Scattered Clouds
10:55 PM 46.4 °F 44.3 °F 36.0 °F 67% 30.13 in 10.0 mi WSW 4.6 mph - N/A   Scattered Clouds
11:15 PM 46.6 °F - 35.6 °F 66% 30.13 in 10.0 mi SSW 5.8 mph - N/A   Scattered Clouds
11:35 PM 46.6 °F - 35.6 °F 66% 30.12 in 10.0 mi Calm Calm - N/A   Scattered Clouds
11:55 PM 47.3 °F - 35.4 °F 63% 30.12 in 10.0 mi Calm Calm - N/A   Mostly Cloudy